FW1466 Weather Reports


Display with metric or nautical units.
time (UTC)temp
F
wind
direction
speed
MPH
gust
MPH
rain 1hr
in
rain 24hr
in
rain mn
in
humidity
%
barometer
mb
20260505041552 59 300 0.0 1.0 0.00 0.05 0.05 81 1001.7
20260505040052 59 300 0.0 3.0 0.00 0.05 0.05 81 1001.6
20260505034552 60 300 0.0 1.0 0.00 0.05 0.05 82 1001.7
20260505033052 60 300 0.0 3.0 0.00 0.05 0.05 82 1001.6
20260505031553 60 300 0.0 2.0 0.00 0.05 0.05 81 1001.5
20260505030050 60 300 0.0 5.0 0.00 0.05 0.05 81 1001.2
20260505024552 60 334 1.0 4.0 0.00 0.05 0.05 82 1000.8
20260505023052 61 223 0.0 3.0 0.00 0.05 0.05 80 1000.9
20260505021547 62 223 0.0 1.0 0.00 0.05 0.05 77 1000.4
20260505020050 63 223 0.0 2.0 0.00 0.05 0.05 75 999.8
20260505014552 63 223 0.0 3.0 0.00 0.05 0.05 75 999.6
20260505013045 63 114 0.0 3.0 0.00 0.05 0.05 76 999.4
20260505011547 63 216 0.0 4.0 0.00 0.05 0.05 77 999.1
20260505010104 63 292 1.0 7.0 0.00 0.05 0.05 76 999.3
20260505004543 63 174 1.0 5.0 0.00 0.05 0.05 77 999.2
20260505003045 64 355 1.0 6.0 0.01 0.05 0.05 80 999.5
20260505001542 65 155 1.0 4.0 0.01 0.05 0.05 78 998.1
20260505000046 66 175 1.0 4.0 0.01 0.05 0.05 76 998.4
20260504234640 67 263 1.0 3.0 0.02 0.05 0.05 75 998.7
20260504233040 68 263 0.0 4.0 0.01 0.04 0.04 69 998.2
20260504231545 68 262 2.0 8.0 0.01 0.04 0.04 66 998.3
20260504230044 72 263 2.0 4.0 0.01 0.04 0.04 66 997.6
20260504224538 72 303 2.0 4.0 0.03 0.03 0.03 61 997.8
20260504223037 72 279 1.0 7.0 0.03 0.03 0.03 62 997.8
20260504221548 70 185 0.0 5.0 0.03 0.03 0.03 69 998.2
20260504220035 73 226 2.0 6.0 0.03 0.03 0.03 63 998.4
20260504214533 78 167 1.0 4.0 0.00 0.00 0.00 46 998.3
20260504213042 79 57 1.0 8.0 0.00 0.00 0.00 45 998.4
20260504211534 80 160 1.0 9.0 0.00 0.00 0.00 44 998.4
20260504210027 78 179 2.0 7.0 0.00 0.00 0.00 46 998.6
20260504204529 80 271 1.0 11.0 0.00 0.00 0.00 43 998.7
20260504203030 80 169 2.0 7.0 0.00 0.00 0.00 43 998.7
20260504201525 80 264 1.0 8.0 0.00 0.00 0.00 43 998.9
20260504200023 81 250 1.0 6.0 0.00 0.00 0.00 43 999.0
20260504194528 80 261 3.0 9.0 0.00 0.00 0.00 42 999.1
20260504193017 79 325 2.0 8.0 0.00 0.00 0.00 46 999.5
20260504191525 80 257 2.0 12.0 0.00 0.00 0.00 44 999.6
20260504190013 79 229 1.0 12.0 0.00 0.00 0.00 47 999.6
20260504184516 80 294 0.0 6.0 0.00 0.00 0.00 47 999.9
20260504183006 79 267 4.0 9.0 0.00 0.00 0.00 41 999.9
20260504181507 78 223 2.0 8.0 0.00 0.00 0.00 40 1000.1
20260504180103 77 271 3.0 8.0 0.00 0.01 0.00 37 1000.2
20260504180002 77 300 2.0 8.0 0.00 0.01 0.00 40 1000.2
20260504174557 77 205 2.0 10.0 0.00 0.01 0.00 45 1000.3
20260504173054 77 169 2.0 9.0 0.00 0.01 0.00 47 1000.7
20260504171557 76 214 2.0 10.0 0.00 0.01 0.00 47 1000.8
20260504081508 46 258 0.0 0.0 0.00 0.10 0.00 88 1004.6